STARLINK-35067, 65527

Orbit data source: Space-Track

STARLINK-35067, 65527 is a payload satellite owned by SpaceX/Seattle (US) in SSO that was launched on Sat, 06 Sep 2025 UTC via an FALCON 9 launch vehicle from the Air Force Eastern Test Range (AFETR). Payload-class satellites include a variety of spacecraft equipped with specific instruments for various scientific and technological missions. These include communications satellites like Starlink; space stations such as the ISS; scientific satellites like the Hubble; Earth observation satellites from companies like Planet Labs, Umbra, and HawkEye 360; GPS; miniature CubeSats for education and research; and military/defense satellites.

Loading next visibility...
Identifier
65527, 2025-200H
Orbit
SSO
Country
Flag of USUS
Related business
Manufacturer
SpaceX/Seattle
Mission
Operational Commercial Communications
Bus & Motor
STARLINK V2MO, Unknown motor
Mass
575 kg wet, ~530 kg dry
Launch date (UTC)
2025-09-06 (9 months ago)
Launch vehicle
FALCON 9
Launch site
Air Force Eastern Test Range (AFETR)
Object type
Payload
Rocket body
Debris
Shape & HBR
Box + 2 Pan, 17.7 m
Radar Cross Section
36.964 m², Large (>1 m²)

Expand to show TLE details & history
Last TLE update: 9 hours ago

TLE from 9 hours ago
0 STARLINK-35067
1 65527U 25200H   26171.47141865  .00003192  00000-0  22501-3 0  9995
2 65527  97.3383 239.9718 0001967 111.7188 248.4249 15.05662070 44596
Epoch: 2026-06-20T11:18Z
TLE epoch observation values (Epoch: 2026-06-20T11:18:50.571Z)
Latitude
-0.00002°
Longitude
161.57553°
Altitude
553.048 km
Speed
7.585 km/s
True Right ascension
15h 59m 53s
True Declination
0° 00' 00"
Sunlit
Object was in full shadow at epoch
Visualization orbit readout
Latitude
Unknown
Longitude
Unknown
Altitude
Unknown
Speed
Unknown
Apparent Right ascension
Unknown
Apparent Declination
Unknown
Sunlit
N/A
Visualization observer readout
Local Sidereal Time
07:14:54
Azimuth
Unknown
Elevation
Unknown
Doppler factor
Unknown
Orbital elements
Apogee altitude
547.818 km
Perigee altitude
545.094 km
Semi-major axis
6,924.593 km
Eccentricity
0.0002
Inclination
97.3383°
RAAN
239.9718°
Arg. of periapsis
111.7188°
True anomaly
248.40394°
Mean anomaly
248.4249°
Eccentric anomaly
248.41442°
Mean motion
3.76662 °/min
Orbital period
95.58 mins
BSTAR
0.00022501
Loading maneuver chart data...
Computing Atmospheric mass density...
Loading historical data...
Loading historical data...
Loading historical data...
Loading historical data...
Loading historical data...
Loading historical data...
Loading historical data...

Documentation

Showing up to 5 results
|